Weather History for Waco, TX

Change the Weather History Date:

Monday, April 15, 2013

  Actual Average Record
Temperature  
Mean Temperature 76 °F 66 °F  
Max Temperature 84 °F 78 °F 91 °F (1925)
Min Temperature 68 °F 54 °F 31 °F (1983)
Degree Days  
Heating Degree Days 0 3  
Month to date heating degree days 74 56  
Since 1 July heating degree days 1922 2114  
Cooling Degree Days 11 3  
Month to date cooling degree days 38 40  
Year to date cooling degree days 81 83  
Growing Degree Days 26 (Base 50)    
Moisture  
Dew Point 65 °F    
Average Humidity 71    
Maximum Humidity 90    
Minimum Humidity 51    
Precipitation  
Precipitation 0.00 in 0.09 in 2.73 in (1977)
Month to date precipitation 0.99 1.15  
Year to date precipitation 9.97 9.05  
Snow  
Snow 0.00 in 0.10 in 0.00 in ()
Month to date snowfall 0.0 0.2  
Since 1 July snowfall T 1.2  
Snow Depth 0.00 in    
Sea Level Pressure  
Sea Level Pressure 29.70 in    
Wind  
Wind Speed 16 mph (SSE)    
Max Wind Speed 24 mph    
Max Gust Speed 30 mph    
Visibility 6 miles    
Events      
T = Trace of Precipitation, MM = Missing Value Source: NWS Daily Summary

Daily Weather History Graph

Daily Weather History Graph

Search for Another Location

Airport:

Trip Planner

Search our weather history database for the weather conditions in past years. The results will help you decide how hot, cold, wet, or windy it might be!

Date:

Astronomy

Apr. 15, 2013 Rise Set
Actual Time 7:00 AM CDT 7:58 PM CDT
Civil Twilight 6:35 AM CDT 8:23 PM CDT
Nautical Twilight 6:05 AM CDT 8:52 PM CDT
Astronomical Twilight 5:35 AM CDT 9:23 PM CDT
Moon 10:37 AM CDT (4/15) 12:00 AM CDT (4/15)
Length of Visible Light 13h 47m
Length of Day
12h 57m
Waxing Crescent, 25% of the Moon is Illuminated
Apr 15
Waxing Crescent
Apr 18
First Quarter
Apr 25
Full
May 2
Last Quarter
May 9
New

Hourly Weather History & Observations

Time (CDT) Temp. Heat Index Dew Point Humidity Pressure Visibility Wind Dir Wind Speed Gust Speed Precip Events Conditions
12:51 AM 71.1 °F - 66.0 °F 84% 29.63 in 8.0 mi South 12.7 mph - N/A   Clear
1:51 AM 70.0 °F - 66.0 °F 87% 29.64 in 7.0 mi South 13.8 mph - N/A   Clear
2:51 AM 68.0 °F - 64.9 °F 90% 29.64 in 6.0 mi South 13.8 mph - N/A   Clear
3:30 AM 69.8 °F - 64.4 °F 83% 29.66 in 6.0 mi South 13.8 mph - N/A   Mostly Cloudy
3:51 AM 69.1 °F - 64.9 °F 87% 29.65 in 5.0 mi South 13.8 mph - N/A   Overcast
4:51 AM 69.1 °F - 66.0 °F 90% 29.65 in 5.0 mi South 16.1 mph - N/A   Overcast
5:51 AM 70.0 °F - 64.9 °F 84% 29.67 in 5.0 mi South 16.1 mph - N/A   Haze
6:51 AM 70.0 °F - 64.9 °F 84% 29.69 in 5.0 mi South 15.0 mph 23.0 mph N/A   Haze
7:51 AM 70.0 °F - 64.9 °F 84% 29.71 in 4.0 mi South 13.8 mph - N/A   Haze
8:51 AM 71.1 °F - 64.9 °F 81% 29.73 in 4.0 mi South 18.4 mph 27.6 mph N/A   Haze
9:51 AM 73.0 °F - 66.0 °F 79% 29.73 in 5.0 mi South 16.1 mph - N/A   Haze
10:51 AM 75.9 °F - 66.0 °F 71% 29.75 in 5.0 mi South 20.7 mph 28.8 mph N/A   Haze
11:51 AM 78.1 °F - 66.0 °F 66% 29.76 in 5.0 mi South 20.7 mph - N/A   Haze
12:51 PM 81.0 °F 83.0 °F 66.0 °F 60% 29.76 in 6.0 mi South 18.4 mph - N/A   Haze
1:51 PM 82.9 °F 85.0 °F 66.0 °F 56% 29.73 in 7.0 mi South 19.6 mph 26.5 mph N/A   Clear
2:51 PM 84.0 °F 85.8 °F 64.9 °F 53% 29.72 in 6.0 mi South 20.7 mph - N/A   Haze
3:51 PM 82.9 °F 84.6 °F 64.9 °F 54% 29.70 in 6.0 mi SSE 15.0 mph - N/A   Haze
4:51 PM 82.9 °F 84.6 °F 64.9 °F 54% 29.69 in 7.0 mi SSE 15.0 mph - N/A   Clear
5:51 PM 81.0 °F 82.5 °F 64.0 °F 56% 29.69 in 7.0 mi South 16.1 mph 23.0 mph N/A   Clear
6:51 PM 81.0 °F 82.2 °F 63.0 °F 54% 29.68 in 7.0 mi South 16.1 mph - N/A   Clear
7:51 PM 79.0 °F - 64.0 °F 60% 29.68 in 7.0 mi SSE 15.0 mph - N/A   Clear
8:51 PM 77.0 °F - 64.9 °F 66% 29.71 in 8.0 mi SSE 12.7 mph 21.9 mph N/A   Clear
9:51 PM 75.0 °F - 64.9 °F 71% 29.75 in 7.0 mi SSE 13.8 mph - N/A   Clear
10:51 PM 73.9 °F - 66.0 °F 76% 29.76 in 6.0 mi SSE 17.3 mph - N/A   Haze
11:51 PM 72.0 °F - 66.9 °F 84% 29.76 in 5.0 mi SSE 17.3 mph - N/A   Haze